Regional Weather Roundup
Issued by NWS

Home | Current Version | Previous Version | Graphics & Text | Print | Product List | Glossary Off
Versions: 1 2 3 4 5 6 7 8 9 10 11 12 13 14 15 16 17 18 19 20 21 22 23 24 25 26 27 28 29 30 31 32 33 34 35 36 37 38 39 40 41 42 43 44 45 46 47 48 49 50

924
ASUS43 KDMX 261301
RWRIA

WEATHER ROUNDUP FOR IOWA
NATIONAL WEATHER SERVICE DES MOINES IA
800 AM CDT SUN MAR 26 2017

NOTE: "FAIR" INDICATES FEW OR NO CLOUDS BELOW 12,000 FEET WITH NO
SIGNIFICANT WEATHER AND/OR OBSTRUCTIONS TO VISIBILITY.

* - THESE STATIONS ARE NOT NWS STATIONS...THUS NOT UNDER NWS
QUALITY CONTROL.  THEY ALSO DO NOT REPORT WEATHER SUCH
AS PRECIPITATION OR FOG.

IAZ001>003-012>014-020>022-031>034-043>046-261400-
   NORTHWEST IOWA

CITY           SKY/WX    TMP DP  RH WIND       PRES   REMARKS
CARROLL *      FOG       37  37 100 N8        29.88S VSB 1   WCI  31
CHEROKEE *     DRIZZLE   37  37 100 N3        29.90F
LE MARS *      CLOUDY    39  37  93 N5        29.92S
ORANGE CITY *  CLOUDY    37  37 100 N5        29.90F FOG     WCI  34
SHELDON *      CLOUDY    36  36 100 N7        29.89F FOG     WCI  30
SIOUX CITY     CLOUDY    39  38  96 N5        29.91S
SPENCER        LGT RAIN  37  36  96 N8        29.91R WCI  31
STORM LAKE *   FOG       36  36 100 N10       29.89S VSB 1/4 WCI  28
$$

IAZ055>058-069>071-079>083-090>094-261400-
   SOUTHWEST IOWA

CITY           SKY/WX    TMP DP  RH WIND       PRES   REMARKS
ATLANTIC *     CLOUDY    39  39 100 N7        29.89R FOG     WCI  34
AUDUBON *      CLOUDY    37  36  93 N7        29.89R FOG     WCI  32
CLARINDA *     CLOUDY    41  41 100 NW5       29.92R FOG
COUNCIL BLFS * CLOUDY    39  39 100 N6        29.90R WCI  35
CRESTON *      FOG       39  39 100 NW7       29.88S VSB 1/2 WCI  34
HARLAN  *      LGT RAIN  39  39 100 N7        29.92S WCI  34
LAMONI         CLOUDY    41  40  96 NW9       29.87R
RED OAK *      CLOUDY    41  39  93 NW5       29.91R
SHENANDOAH *   CLOUDY    41  41 100 N6        29.91S FOG
$$

IAZ047>049-059>061-072>074-084-261400-
   CENTRAL IOWA

CITY           SKY/WX    TMP DP  RH WIND       PRES   REMARKS
AMES           CLOUDY    40  40 100 N10       29.86S WCI  33
ANKENY *       CLOUDY    41  39  93 N6        29.87S
BOONE *        FOG       39  39 100 N9        29.86R VSB 1/2 WCI  33
CHARITON *     FOG       41  41 100 NW8       29.85S VSB<1/4
DES MOINES     FOG       41  40  96 N5        29.86R VSB 3/4
GRINNELL*      HVY RAIN  40  40  98 N5        29.85R
MARSHALLTOWN   FOG       39  39 100 N8        29.85R VSB 1/2 WCI  33
NEWTON *       CLOUDY    41  41 100 NW7       29.84S FOG
PELLA *        DRIZZLE   41  41  99 NW7       29.86R
PERRY *        CLOUDY    39  38  97 NW7       29.88R FOG     WCI  34
$$

IAZ004>006-015-016-023>025-035-036-261400-
   NORTH CENTRAL IOWA

CITY           SKY/WX    TMP DP  RH WIND       PRES   REMARKS
ALGONA *       FOG       37  37 100 N9        29.89S VSB 1   WCI  31
CLARION *      CLOUDY    37  37 100 N7        29.88S FOG     WCI  32
ESTHERVILLE    CLOUDY    35  35 100 N8        29.90S FOG     WCI  29
FORT DODGE *   CLOUDY    37  36  93 N5        29.89S WCI  34
MASON CITY     CLOUDY    37  35  92 N8        29.89S WCI  31
FOREST CITY *  CLOUDY    36  36 100 N5        29.89R FOG     WCI  32
WEBSTER CITY * CLOUDY    37  37 100 N9        29.86R FOG     WCI  31
IOWA FALLS *   CLOUDY    39  38  97 N6        29.88S FOG     WCI  34
$$

IAZ007>011-017>019-026>030-037>042-050>054-066-261400-
   NORTHEAST IOWA

CITY           SKY/WX    TMP DP  RH WIND       PRES   REMARKS
CEDAR RAPIDS   FOG       43  43 100 NE9       29.81S VSB 1/4
CHARLES CITY * CLOUDY    37  37 100 NE10      29.87S WCI  30
CLINTON *      FOG       48  48 100 E7        29.82S VSB 1/4
DECORAH *      LGT RAIN  36  36 100 NE5       29.86F WCI  32
DUBUQUE        FOG       41  41 100 NE9       29.83S VSB<1/4
MONTICELLO *   FOG       43  43 100 NE6       29.83S VSB 1/2
OELWEIN *      FOG       39  39 100 NE8G15    29.85S VSB 1/4 WCI  34
WATERLOO       CLOUDY    39  38  96 NE8       29.85S FOG     WCI  33
$$

IAZ064-065-067-068-078-261400-
   EAST CENTRAL IOWA

CITY           SKY/WX    TMP DP  RH WIND       PRES   REMARKS
DAVENPORT      FOG       48  47  96 E5        29.82R VSB<1/4
IOWA CITY      FOG       46  45  96 NE7       29.83R VSB 1/4
MUSCATINE *    FOG       48  48 100 NE5       29.81S VSB<1/4
QUAD CITIES    FOG       50  49  96 E3        29.81R VSB<1/4
$$

IAZ062-063-075>077-085>089-095>099-261400-
   SOUTHEAST IOWA

CITY           SKY/WX    TMP DP  RH WIND       PRES   REMARKS
BURLINGTON     CLOUDY    51  51 100 SW12      29.80R FOG
FAIRFIELD *    FOG       46  46 100 NW7       29.81R VSB<1/4
FORT MADISON * CLOUDY    48  48 100 SW10      29.82R FOG
KEOKUK *       CLOUDY    48  48 100 SW10      29.81R FOG
OSKALOOSA *    FOG       42  42  99 NW7       29.83S VSB 1/2
OTTUMWA        LGT RAIN  43  43 100 NW9       29.83R VSB 1
WASHINGTON *   FOG       46  46 100 NE12      29.81S VSB<1/4
$$

ABBREVIATIONS USED IN REMARKS
   TC - TEMPERATURES IN CELSIUS
  WCI - WIND CHILL INDEX
   HX - HEAT INDEX
  VSB - VISIBILITY
$$





USA.gov is the U.S. government's official web portal to all federal, state and local government web resources and services.